Regional Weather Roundup
Issued by NWS Albany, NY

Home | Current Version | Previous Version | Text Only | Print | Product List | Glossary On
Versions: 1 2 3 4 5 6 7 8 9 10 11 12 13 14 15 16 17 18 19 20 21 22 23 24 25 26 27 28 29 30 31 32 33 34 35 36 37 38 39 40 41 42 43 44 45 46 47 48 49 50
000
ASUS41 KALY 041610
RWRALY

NEW YORK STATE HOURLY WEATHER ROUNDUP
NATIONAL WEATHER SERVICE ALBANY NY
1200 PM EDT FRI SEP 04 2015

NOTE: "FAIR" INDICATES FEW OR NO CLOUDS BELOW 12,000 FEET WITH NO
SIGNIFICANT WEATHER AND/OR NO OBSTRUCTIONS TO VISIBILITY.

NYZ032-033-038>043-046>054-057>066-NYZ062>081-041700-
EAST


CITY           SKY/WX    TMP DP  RH WIND       PRES   REMARKS
ALBANY         MOSUNNY   77  60  55 CALM      30.14S
GLENS FALLS    SUNNY     76  59  55 MISG      30.15S
POUGHKEEPSIE   CLOUDY    78  65  63 N5        30.11R
NEWBURGH       PTSUNNY   77  68  73 NE9       30.13R
MONTGOMERY     CLOUDY    79  66  64 NE9       30.12R
WHITE PLAINS   PTSUNNY   78  67  68 SE12G20   30.10R
ISLIP          CLOUDY    77  66  68 NE12      30.08R
NEW YORK CITY  CLOUDY    79  67  66 NE16      30.08R
CENTRAL PARK   CLOUDY    80  66  62 E12G17    30.12R
$$

NYZ005>009-017-018-044>046-055-056-041700-
CENTRAL


CITY           SKY/WX    TMP DP  RH WIND       PRES   REMARKS
FULTON         SUNNY     81  59  47 VRB3      30.12S
SYRACUSE       MOSUNNY   78  62  57 E7        30.11S
ROME           SUNNY     78  56  46 SE6       30.14S
ELMIRA         MOSUNNY   77  69  76 S3        30.11S
BINGHAMTON     LGT RAIN  77  65  66 VRB3      30.15R
MONTICELLO     PTSUNNY   75  64  69 E10       30.17R VSB 1
$$

NYZ026>034-041>043-041700-
NORTH


CITY           SKY/WX    TMP DP  RH WIND       PRES   REMARKS
WATERTOWN      SUNNY     78  53  41 NE13      30.13S
FORT DRUM      NOT AVBL
MASSENA        SUNNY     72  55  55 E14       30.19S
SARANAC LAKE   SUNNY     74  49  41 VRB7      30.18S
PLATTSBURGH    SUNNY     69  58  67 NE9       30.19R
$$

NYZ001>004-010>016-019>021-041700-
WEST


CITY           SKY/WX    TMP DP  RH WIND       PRES   REMARKS
NIAGARA FALLS  MOSUNNY   82  63  52 E15G24    30.08S
BUFFALO        MOSUNNY   82  66  58 E12       30.09S
DUNKIRK        MOSUNNY   82  70  66 N8        30.07S
JAMESTOWN      MOSUNNY   79  66  65 SE6       30.12S
WELLSVILLE     SUNNY     79  64  60 VRB5      30.17S
ROCHESTER      MOSUNNY   80  67  64 E8        30.12R
PENN YAN       CLOUDY    73  68  84 N3        30.14R HAZE
$$

             KEY
       WCI = WIND CHILL INDEX
       VSB = VISIBILITY
       HX  = HEAT INDEX
$$



USA.gov is the U.S. government's official web portal to all federal, state and local government web resources and services.